Location: Cosy Dell
(34.2789°N, 117.4537°W)
Time: 11:46:01
(UTC+00:00)

OAO 1 - Pass Details

Date: 14 July 2020
Orbit: 774 x 783 km, 35.0° (Epoch: 09 August)

Event Time Altitude Azimuth Distance (km) Brightness Sun altitude
Exits shadow 10:43:29 45° 246° (WSW) 1,054 4.8 -21.4°
Maximum altitude 10:45:13 80° 167° (SSE) 795 4.4 -21.1°
Drops below altitude 10° 10:50:44 10° 81° (E) 2,331 7.7 -20.4°
Sets 10:53:13 0° 80° (E) 3,259 8.6 -20.0°
